QFA3 YSSY-KJFK

Flight info

Callsign QFA3
Flight time N/A
Altitude 30000
Route / CADIZ WWSHR WLKES PUCKY1
Aircraft A35K/H-VGDW/C

Departure

Time N/A
Airport Sydney Kingsford Smith International Airport (YSSY)

Arrival

Time 2026-05-09 03:34
Airport John F. Kennedy International Airport (KJFK)
Time Latitude Longitude Altitude Speed Heading
2026-05-09 02:47 41.21932 -79.88498 36987 ft 525 kts 16°
2026-05-09 02:47 41.23955 -79.86728 36835 ft 554 kts 27°
2026-05-09 02:48 41.27642 -79.81368 36176 ft 607 kts 52°
2026-05-09 02:48 41.29555 -79.76396 35404 ft 617 kts 68°
2026-05-09 02:48 41.30690 -79.70877 34339 ft 624 kts 79°
2026-05-09 02:48 41.31457 -79.65154 33044 ft 634 kts 81°
2026-05-09 02:49 41.32124 -79.59311 31812 ft 641 kts 82°
2026-05-09 02:49 41.32756 -79.53501 31184 ft 629 kts 82°
2026-05-09 02:49 41.33369 -79.47808 30586 ft 616 kts 82°
2026-05-09 02:49 41.33968 -79.42229 30280 ft 599 kts 82°
2026-05-09 02:50 41.34552 -79.36832 30215 ft 579 kts 82°
2026-05-09 02:50 41.35056 -79.32223 30215 ft 561 kts 82°
2026-05-09 02:50 41.35607 -79.27223 30220 ft 550 kts 81°
2026-05-09 02:51 41.36730 -79.17159 30221 ft 550 kts 82°
2026-05-09 02:51 41.37526 -79.07035 30222 ft 550 kts 91°
2026-05-09 02:52 41.37430 -78.96888 30217 ft 547 kts 94°
2026-05-09 02:52 41.37198 -78.86753 30221 ft 547 kts 94°
2026-05-09 02:53 41.37033 -78.76619 30224 ft 548 kts 94°
2026-05-09 02:53 41.36853 -78.66611 30220 ft 541 kts 94°
2026-05-09 02:54 41.36656 -78.56603 30221 ft 542 kts 94°
2026-05-09 02:54 41.36449 -78.46588 30218 ft 542 kts 94°
2026-05-09 02:55 41.36230 -78.36539 30220 ft 546 kts 94°
2026-05-09 02:55 41.36000 -78.26388 30222 ft 551 kts 95°
2026-05-09 02:56 41.35759 -78.16261 30218 ft 548 kts 94°
2026-05-09 02:56 41.35513 -78.06142 30208 ft 545 kts 95°
2026-05-09 02:57 41.35255 -77.96065 30220 ft 545 kts 95°
2026-05-09 02:57 41.34992 -77.85962 30219 ft 547 kts 95°
2026-05-09 02:58 41.34717 -77.75816 30221 ft 549 kts 95°
2026-05-09 02:58 41.34435 -77.65721 30223 ft 552 kts 95°
2026-05-09 02:59 41.34141 -77.55549 30218 ft 544 kts 95°
2026-05-09 02:59 41.33844 -77.45523 30219 ft 543 kts 95°
2026-05-09 03:00 41.33535 -77.35428 30216 ft 549 kts 95°
2026-05-09 03:00 41.33215 -77.25292 30219 ft 546 kts 95°
2026-05-09 03:01 41.32891 -77.15250 30217 ft 548 kts 95°
2026-05-09 03:01 41.32553 -77.05041 30220 ft 556 kts 95°
2026-05-09 03:02 41.32202 -76.94772 30219 ft 556 kts 96°
2026-05-09 03:02 41.31842 -76.84482 30220 ft 556 kts 96°
2026-05-09 03:03 41.31474 -76.74247 30219 ft 554 kts 96°
2026-05-09 03:03 41.31099 -76.64064 30220 ft 556 kts 96°
2026-05-09 03:04 41.30711 -76.53810 30222 ft 551 kts 95°
2026-05-09 03:04 41.30324 -76.43805 30218 ft 541 kts 96°
2026-05-09 03:05 41.29930 -76.33736 30225 ft 548 kts 96°
2026-05-09 03:05 41.29522 -76.23630 30218 ft 549 kts 96°
2026-05-09 03:06 41.29104 -76.13486 30219 ft 550 kts 96°
2026-05-09 03:06 41.28679 -76.03387 30221 ft 552 kts 96°
2026-05-09 03:07 41.28241 -75.93200 30219 ft 551 kts 96°
2026-05-09 03:07 41.27794 -75.82986 30223 ft 558 kts 97°
2026-05-09 03:08 41.27331 -75.72700 30221 ft 554 kts 96°
2026-05-09 03:08 41.26738 -75.67716 30221 ft 538 kts 112°
2026-05-09 03:08 41.25402 -75.63154 30225 ft 525 kts 121°
2026-05-09 03:09 41.22381 -75.54422 30220 ft 525 kts 122°
2026-05-09 03:09 41.19355 -75.45578 30221 ft 526 kts 121°
2026-05-09 03:09 41.17860 -75.41167 30073 ft 521 kts 121°
2026-05-09 03:10 41.16393 -75.36831 29541 ft 517 kts 120°
2026-05-09 03:10 41.14940 -75.32540 29531 ft 499 kts 117°
2026-05-09 03:10 41.13548 -75.28413 30122 ft 486 kts 117°
2026-05-09 03:10 41.12170 -75.24301 29215 ft 492 kts 117°
2026-05-09 03:11 41.10753 -75.20096 28171 ft 504 kts 117°
2026-05-09 03:11 41.09318 -75.15864 27548 ft 503 kts 117°
2026-05-09 03:11 41.07884 -75.11642 26981 ft 502 kts 117°
2026-05-09 03:11 41.06454 -75.07441 26457 ft 498 kts 117°
2026-05-09 03:12 41.05053 -75.03327 25991 ft 495 kts 117°
2026-05-09 03:12 41.03642 -74.99192 25530 ft 491 kts 117°
2026-05-09 03:12 41.02241 -74.95087 25068 ft 487 kts 117°
2026-05-09 03:12 41.00851 -74.91021 24633 ft 482 kts 117°
2026-05-09 03:13 40.98846 -74.82652 23754 ft 477 kts 99°
2026-05-09 03:13 40.98363 -74.78330 23242 ft 473 kts 98°
2026-05-09 03:13 40.97900 -74.74045 22761 ft 468 kts 98°
2026-05-09 03:14 40.97430 -74.69809 22295 ft 463 kts 99°
2026-05-09 03:14 40.96953 -74.65616 21815 ft 457 kts 99°
2026-05-09 03:14 40.96481 -74.61542 21379 ft 452 kts 99°
2026-05-09 03:14 40.96008 -74.57492 21134 ft 441 kts 99°
2026-05-09 03:15 40.95543 -74.53530 20935 ft 431 kts 99°
2026-05-09 03:15 40.95088 -74.49657 20698 ft 420 kts 99°
2026-05-09 03:15 40.94642 -74.45882 20471 ft 410 kts 99°
2026-05-09 03:15 40.94207 -74.42197 20208 ft 403 kts 99°
2026-05-09 03:16 40.93773 -74.38551 19872 ft 398 kts 99°
2026-05-09 03:16 40.93347 -74.34981 19393 ft 388 kts 99°
2026-05-09 03:16 40.92922 -74.31446 19078 ft 390 kts 99°
2026-05-09 03:16 40.92496 -74.27919 19008 ft 388 kts 99°
2026-05-09 03:17 40.92070 -74.24405 19003 ft 386 kts 99°
2026-05-09 03:17 40.91645 -74.20900 19006 ft 386 kts 99°
2026-05-09 03:17 40.91219 -74.17399 19006 ft 386 kts 99°
2026-05-09 03:17 40.90790 -74.13908 19005 ft 385 kts 100°
2026-05-09 03:18 40.90092 -74.10546 19004 ft 384 kts 113°
2026-05-09 03:18 40.88848 -74.07468 19004 ft 376 kts 133°
2026-05-09 03:18 40.86965 -74.05231 18750 ft 357 kts 156°
2026-05-09 03:18 40.84754 -74.03848 18306 ft 348 kts 167°
2026-05-09 03:19 40.82496 -74.02715 17836 ft 345 kts 168°
2026-05-09 03:19 40.80251 -74.01627 17381 ft 343 kts 168°
2026-05-09 03:19 40.78014 -74.00553 16947 ft 341 kts 168°
2026-05-09 03:19 40.75787 -73.99491 16464 ft 340 kts 168°
2026-05-09 03:20 40.73565 -73.98437 16026 ft 338 kts 168°
2026-05-09 03:20 40.71361 -73.97398 15611 ft 336 kts 168°
2026-05-09 03:20 40.69171 -73.96370 15176 ft 334 kts 168°
2026-05-09 03:20 40.67017 -73.95364 14758 ft 332 kts 168°
2026-05-09 03:21 40.64842 -73.94354 14334 ft 330 kts 168°
2026-05-09 03:21 40.62686 -73.93357 13899 ft 328 kts 168°
2026-05-09 03:21 40.60535 -73.92371 13437 ft 326 kts 168°
2026-05-09 03:21 40.58403 -73.91394 13006 ft 323 kts 168°
2026-05-09 03:22 40.56291 -73.90421 12590 ft 320 kts 168°
2026-05-09 03:22 40.54202 -73.89454 12175 ft 317 kts 168°
2026-05-09 03:22 40.52134 -73.88490 11793 ft 315 kts 168°
2026-05-09 03:22 40.50080 -73.87529 11383 ft 312 kts 168°
2026-05-09 03:23 40.48044 -73.86572 10986 ft 309 kts 168°
2026-05-09 03:23 40.46056 -73.85633 10590 ft 307 kts 168°
2026-05-09 03:23 40.44056 -73.84686 10218 ft 304 kts 168°
2026-05-09 03:23 40.42079 -73.83745 9806 ft 301 kts 168°
2026-05-09 03:24 40.40108 -73.82813 9272 ft 302 kts 168°
2026-05-09 03:24 40.38129 -73.81899 8800 ft 300 kts 168°
2026-05-09 03:24 40.36166 -73.81000 8405 ft 297 kts 168°
2026-05-09 03:24 40.34230 -73.80118 7994 ft 293 kts 168°
2026-05-09 03:25 40.32314 -73.79217 7574 ft 293 kts 165°
2026-05-09 03:25 40.30603 -73.77710 7156 ft 303 kts 140°
2026-05-09 03:25 40.29435 -73.75405 6773 ft 308 kts 115°
2026-05-09 03:25 40.29003 -73.72665 6395 ft 308 kts 92°
2026-05-09 03:26 40.29080 -73.69919 6010 ft 305 kts 84°
2026-05-09 03:26 40.29341 -73.67184 5612 ft 301 kts 81°
2026-05-09 03:26 40.29797 -73.64534 5213 ft 296 kts 66°
2026-05-09 03:26 40.30881 -73.62335 4914 ft 283 kts 43°
2026-05-09 03:27 40.32330 -73.60637 4502 ft 278 kts 34°
2026-05-09 03:27 40.33891 -73.59160 4058 ft 276 kts 31°
2026-05-09 03:27 40.35490 -73.57808 3670 ft 272 kts 29°
2026-05-09 03:27 40.37100 -73.56510 3241 ft 271 kts 28°
2026-05-09 03:28 40.38711 -73.55249 3021 ft 269 kts 28°
2026-05-09 03:28 40.40322 -73.54010 2981 ft 269 kts 28°
2026-05-09 03:28 40.41916 -73.52787 2983 ft 269 kts 28°
2026-05-09 03:28 40.43528 -73.51547 2983 ft 269 kts 28°
2026-05-09 03:29 40.45137 -73.50306 2992 ft 268 kts 28°
2026-05-09 03:29 40.46771 -73.49124 2981 ft 267 kts 21°
2026-05-09 03:29 40.48564 -73.48712 2991 ft 261 kts 353°
2026-05-09 03:29 40.50332 -73.49159 3011 ft 258 kts 341°
2026-05-09 03:30 40.51959 -73.50092 3005 ft 255 kts 325°
2026-05-09 03:30 40.53225 -73.51682 2999 ft 252 kts 306°
2026-05-09 03:30 40.54227 -73.53563 3001 ft 251 kts 301°
2026-05-09 03:30 40.55161 -73.55504 3002 ft 251 kts 300°
2026-05-09 03:31 40.56076 -73.57463 3004 ft 251 kts 300°
2026-05-09 03:31 40.56973 -73.59402 3005 ft 251 kts 299°
2026-05-09 03:31 40.57837 -73.61331 2971 ft 236 kts 297°
2026-05-09 03:31 40.58589 -73.63140 2734 ft 214 kts 298°
2026-05-09 03:32 40.59325 -73.64741 2302 ft 195 kts 299°
2026-05-09 03:32 40.60002 -73.66207 1844 ft 180 kts 299°
2026-05-09 03:32 40.60612 -73.67577 1560 ft 170 kts 297°
2026-05-09 03:32 40.61204 -73.68923 1333 ft 170 kts 298°
2026-05-09 03:33 40.61815 -73.70271 1097 ft 173 kts 298°
2026-05-09 03:33 40.62432 -73.71636 846 ft 174 kts 299°
2026-05-09 03:33 40.63052 -73.73008 629 ft 174 kts 300°
2026-05-09 03:33 40.63674 -73.74380 376 ft 174 kts 300°
2026-05-09 03:34 40.64290 -73.75710 120 ft 173 kts 303°
2026-05-09 03:34 40.64877 -73.77063 34 ft 158 kts 309°
2026-05-09 03:34 40.65345 -73.78075 27 ft 92 kts 300°
2026-05-09 03:34 40.65523 -73.78473 27 ft 18 kts 301°
2026-05-09 03:35 40.65595 -73.78656 26 ft 28 kts 279°
2026-05-09 03:35 40.65561 -73.78752 26 ft 0 kts 202°
2026-05-09 03:35 40.65517 -73.78724 26 ft 17 kts 131°
2026-05-09 03:35 40.65426 -73.78547 27 ft 25 kts 141°
2026-05-09 03:36 40.65279 -73.78477 27 ft 19 kts 204°
2026-05-09 03:36 40.65199 -73.78626 27 ft 21 kts 242°
2026-05-09 03:36 40.65145 -73.78816 26 ft 23 kts 261°
2026-05-09 03:36 40.65048 -73.78924 27 ft 7 kts 208°
2026-05-09 03:37 40.65034 -73.78935 27 ft 7 kts 210°
2026-05-09 03:37 40.64973 -73.78968 26 ft 11 kts 198°
2026-05-09 03:37 40.64948 -73.78978 26 ft 0 kts 197°
2026-05-09 03:37 40.64946 -73.78978 26 ft 0 kts 197°